FW3135 Weather Reports


Display with metric or nautical units.
time (UTC)temp
F
wind
direction
speed
MPH
gust
MPH
rain 1hr
in
rain 24hr
in
rain mn
in
humidity
%
barometer
mb
20260905171325 84 360 4.0 6.0 0.00 0.00 0.00 55 1019.9
20260905170833 84 360 3.0 6.0 0.00 0.00 0.00 54 1019.8
20260905170323 83 360 3.0 6.0 0.00 0.00 0.00 57 1019.8
20260905165833 82 360 3.0 9.0 0.00 0.00 0.00 59 1019.7
20260905165347 81 360 3.0 9.0 0.00 0.00 0.00 62 1019.8
20260905164836 81 360 3.0 8.0 0.00 0.00 0.00 66 1019.8
20260905163831 80 360 5.0 10.0 0.00 0.00 0.00 67 1019.6
20260905163329 79 360 3.0 8.0 0.00 0.00 0.00 70 1019.7
20260905162834 79 360 2.0 9.0 0.00 0.00 0.00 70 1019.7
20260905162314 80 360 3.0 6.0 0.00 0.00 0.00 68 1019.5
20260905161855 81 360 3.0 4.0 0.00 0.00 0.00 66 1019.4
20260905161330 81 360 2.0 4.0 0.00 0.00 0.00 66 1019.3
20260905160833 81 242 1.0 4.0 0.00 0.00 0.00 65 1019.4
20260905160328 82 360 2.0 8.0 0.00 0.00 0.00 64 1019.4
20260905155829 83 360 4.0 8.0 0.00 0.00 0.00 61 1019.3
20260905155332 84 360 5.0 8.0 0.00 0.00 0.00 57 1019.3
20260905154847 85 360 4.0 8.0 0.00 0.00 0.00 57 1019.3
20260905153819 85 254 4.0 8.0 0.00 0.00 0.00 56 1019.2
20260905153321 85 360 4.0 9.0 0.00 0.00 0.00 56 1019.3
20260905152839 84 360 4.0 9.0 0.00 0.00 0.00 57 1019.4
20260905152318 83 360 4.0 9.0 0.00 0.00 0.00 59 1019.6
20260905151821 82 360 4.0 9.0 0.00 0.00 0.00 62 1019.6
20260905151320 81 360 4.0 8.0 0.00 0.00 0.00 65 1019.8
20260905143818 83 360 2.0 4.0 0.00 0.00 0.00 66 1019.8
20260905143351 84 360 0.0 2.0 0.00 0.00 0.00 64 1019.7
20260905142839 84 240 0.0 0.0 0.00 0.00 0.00 65 1019.8
20260905141323 84 240 0.0 0.0 0.00 0.00 0.00 68 1019.8
20260905140855 84 240 0.0 0.0 0.00 0.00 0.00 66 1019.8
20260905140317 83 240 0.0 0.0 0.00 0.00 0.00 64 1019.9
20260905135824 83 238 0.0 0.0 0.00 0.00 0.00 67 1019.8
20260905135324 82 238 0.0 0.0 0.00 0.00 0.00 67 1020.0
20260905134833 82 238 0.0 2.0 0.00 0.00 0.00 72 1019.9
20260905134433 81 238 0.0 3.0 0.00 0.00 0.00 70 1019.9
20260905134352 81 238 0.0 3.0 0.00 0.00 0.00 70 1019.9
20260905133900 81 238 1.0 3.0 0.00 0.00 0.00 71 1020.1
20260905133327 81 242 2.0 5.0 0.00 0.00 0.00 68 1020.1
20260905132817 81 244 3.0 7.0 0.00 0.00 0.00 65 1020.3
20260905132333 81 360 4.0 7.0 0.00 0.00 0.00 64 1020.3
20260905131815 80 360 4.0 6.0 0.00 0.00 0.00 65 1020.3
20260905125830 79 253 2.0 5.0 0.00 0.00 0.00 67 1020.2
20260905124955 80 257 2.0 4.0 0.00 0.00 0.00 67 1020.4
20260905124854 80 257 2.0 4.0 0.00 0.00 0.00 67 1020.4
20260905123904 80 236 1.0 3.0 0.00 0.00 0.00 66 1020.4
20260905123436 80 236 2.0 3.0 0.00 0.00 0.00 67 1020.4
20260905123343 80 236 2.0 3.0 0.00 0.00 0.00 67 1020.4
20260905122833 80 236 2.0 3.0 0.00 0.00 0.00 65 1020.5
20260905122345 80 236 2.0 3.0 0.00 0.00 0.00 65 1020.5
20260905121822 80 232 2.0 3.0 0.00 0.00 0.00 66 1020.4
20260905121321 79 233 2.0 3.0 0.00 0.00 0.00 68 1020.5
20260905120815 78 232 2.0 3.0 0.00 0.00 0.00 69 1020.5
20260905120316 78 244 2.0 3.0 0.00 0.00 0.00 70 1020.5
20260905115411 77 243 1.0 3.0 0.00 0.00 0.00 74 1020.5
20260905115339 77 243 1.0 3.0 0.00 0.00 0.00 74 1020.5
20260905115006 77 244 2.0 3.0 0.00 0.00 0.00 75 1020.4
20260905114853 77 244 2.0 3.0 0.00 0.00 0.00 75 1020.4
20260905113823 77 248 1.0 3.0 0.00 0.00 0.00 73 1020.5
20260905113345 77 248 2.0 4.0 0.00 0.00 0.00 75 1020.5
20260905112825 76 360 3.0 4.0 0.00 0.00 0.00 73 1020.5
20260905112338 77 235 2.0 3.0 0.00 0.00 0.00 74 1020.6
20260905111833 77 240 1.0 3.0 0.00 0.00 0.00 76 1020.4
20260905110826 77 241 1.0 3.0 0.00 0.00 0.00 76 1020.6
20260905110349 77 240 2.0 3.0 0.00 0.00 0.00 75 1020.6
20260905105840 78 240 1.0 3.0 0.00 0.00 0.00 74 1020.6
20260905105407 78 240 2.0 3.0 0.00 0.00 0.00 72 1020.6
20260905104848 79 240 2.0 3.0 0.00 0.00 0.00 69 1020.5
20260905104326 79 242 1.0 2.0 0.00 0.00 0.00 69 1020.5
20260905101818 76 250 0.0 2.0 0.00 0.00 0.00 75 1020.6
20260905101340 75 250 0.0 4.0 0.00 0.00 0.00 77 1020.7
20260905100856 74 250 2.0 4.0 0.00 0.00 0.00 76 1020.7
20260905100315 74 360 2.0 4.0 0.00 0.00 0.00 77 1020.7
20260905095846 74 270 2.0 4.0 0.00 0.00 0.00 77 1020.7
20260905095331 74 275 4.0 4.0 0.00 0.00 0.00 76 1020.7
20260905094818 75 264 0.0 0.0 0.00 0.00 0.00 77 1020.6
20260905094316 75 265 0.0 0.0 0.00 0.00 0.00 77 1020.6
20260905093902 75 265 0.0 1.0 0.00 0.00 0.00 77 1020.6
20260905092900 74 265 1.0 3.0 0.00 0.00 0.00 80 1020.6
20260905091833 72 265 2.0 4.0 0.00 0.00 0.00 80 1020.6
20260905091343 72 266 3.0 4.0 0.00 0.00 0.00 79 1020.5
20260905064345 70 82 2.0 6.0 0.00 0.00 0.00 86 1019.6
20260905063822 69 127 1.0 3.0 0.00 0.00 0.00 86 1019.5
20260905063325 69 46 0.0 0.0 0.00 0.00 0.00 86 1019.6
20260905062821 69 300 0.0 0.0 0.00 0.00 0.00 86 1019.7
20260905062318 69 299 0.0 0.0 0.00 0.00 0.00 85 1019.5
20260905061819 69 299 0.0 0.0 0.00 0.00 0.00 85 1019.5
20260905061316 69 302 0.0 0.0 0.00 0.00 0.00 85 1019.4
20260905060838 69 302 0.0 0.0 0.00 0.00 0.00 85 1019.3
20260905055828 70 302 0.0 3.0 0.00 0.00 0.00 83 1019.2
20260905055328 70 259 1.0 3.0 0.00 0.00 0.00 83 1019.2
20260905052321 73 257 2.0 9.0 0.00 0.00 0.00 78 1019.0
20260905051848 73 360 3.0 10.0 0.00 0.00 0.00 82 1019.0
20260905050831 70 84 1.0 5.0 0.00 0.00 0.00 87 1019.0
20260905045321 68 157 0.0 0.0 0.00 0.00 0.00 90 1019.2
20260905044930 68 157 0.0 3.0 0.00 0.00 0.00 90 1019.3
20260905044846 68 157 0.0 3.0 0.00 0.00 0.00 90 1019.3
20260905044322 68 157 1.0 3.0 0.00 0.00 0.00 90 1019.4
20260905035840 68 233 2.0 3.0 0.00 0.00 0.00 89 1019.5
20260905035335 68 232 0.0 3.0 0.00 0.00 0.00 89 1019.5
20260905034845 68 137 0.0 0.0 0.00 0.00 0.00 88 1019.5
20260905034331 68 193 0.0 0.0 0.00 0.00 0.00 88 1019.6
20260905033823 68 193 0.0 0.0 0.00 0.00 0.00 88 1019.5
20260905033318 69 193 0.0 0.0 0.00 0.00 0.00 88 1019.4
20260905032852 68 193 0.0 0.0 0.00 0.00 0.00 88 1019.4
20260905032326 68 193 0.0 0.0 0.00 0.00 0.00 88 1019.4
20260905001315 70 236 4.0 8.0 0.00 0.00 0.00 80 1020.7
20260905000845 71 360 2.0 8.0 0.00 0.00 0.00 79 1020.7
20260905000355 71 217 2.0 4.0 0.00 0.00 0.00 78 1020.6
20260904235909 72 249 1.0 5.0 0.00 0.00 0.00 78 1020.7
20260904235359 72 211 1.0 5.0 0.00 0.00 0.00 76 1020.6
20260904234833 73 260 2.0 4.0 0.00 0.00 0.00 76 1020.6
20260904234348 73 268 1.0 3.0 0.00 0.00 0.00 75 1020.6
20260904233834 73 329 0.0 4.0 0.00 0.00 0.00 75 1020.7
20260904233319 74 329 2.0 5.0 0.00 0.00 0.00 74 1020.8
20260904232828 75 360 3.0 5.0 0.00 0.00 0.00 72 1020.9
20260904232348 75 78 0.0 6.0 0.00 0.00 0.00 71 1020.5
20260904231900 75 87 3.0 6.0 0.00 0.00 0.00 72 1020.5
20260904230852 74 86 5.0 6.0 0.00 0.00 0.00 76 1020.3
20260904230332 73 360 1.0 3.0 0.00 0.00 0.00 77 1020.3
20260904225830 73 81 2.0 5.0 0.00 0.00 0.00 77 1020.4
20260904225350 73 154 1.0 5.0 0.00 0.00 0.00 77 1020.5
20260904224844 73 65 1.0 4.0 0.00 0.00 0.00 77 1020.4
20260904224359 73 34 2.0 4.0 0.00 0.00 0.00 78 1020.4
20260904223826 73 86 3.0 6.0 0.00 0.00 0.00 78 1020.4
20260904223328 73 248 1.0 8.0 0.00 0.00 0.00 78 1020.4
20260904222824 73 360 5.0 8.0 0.00 0.00 0.00 78 1020.4
20260904222347 72 360 2.0 5.0 0.00 0.00 0.00 78 1020.6
20260904221822 73 110 2.0 4.0 0.00 0.00 0.00 77 1020.6
20260904221345 73 178 2.0 4.0 0.00 0.00 0.00 77 1020.6
20260904220827 73 123 2.0 4.0 0.00 0.00 0.00 77 1020.7
20260904220351 73 196 2.0 3.0 0.00 0.00 0.00 76 1020.8
20260904215852 73 250 1.0 5.0 0.00 0.00 0.00 76 1020.8
20260904215348 73 336 3.0 8.0 0.00 0.00 0.00 76 1020.7
20260904214829 73 314 2.0 8.0 0.00 0.00 0.00 75 1020.8
20260904214346 73 360 4.0 6.0 0.00 0.00 0.00 75 1020.9
20260904213829 74 355 4.0 19.0 0.00 0.00 0.00 74 1020.8
20260904213325 76 360 10.0 19.0 0.00 0.00 0.00 69 1020.9
20260904212830 79 173 0.0 3.0 0.00 0.00 0.00 65 1020.4
20260904212345 79 360 0.0 0.0 0.00 0.00 0.00 62 1020.4
20260904211826 80 157 0.0 0.0 0.00 0.00 0.00 61 1020.4
20260904211323 80 157 0.0 3.0 0.00 0.00 0.00 63 1020.4
20260904210826 80 157 2.0 3.0 0.00 0.00 0.00 59 1020.3
20260904210327 80 158 1.0 5.0 0.00 0.00 0.00 60 1020.3
20260904205824 80 158 2.0 5.0 0.00 0.00 0.00 61 1020.3
20260904205318 81 144 2.0 4.0 0.00 0.00 0.00 60 1020.4
20260904204822 82 78 0.0 0.0 0.00 0.00 0.00 60 1020.3
20260904204317 82 78 0.0 0.0 0.00 0.00 0.00 54 1020.3
20260904203821 82 78 0.0 2.0 0.00 0.00 0.00 55 1020.2
20260904203323 81 78 0.0 3.0 0.00 0.00 0.00 56 1020.3
20260904202839 81 78 1.0 4.0 0.00 0.00 0.00 58 1020.3
20260904202321 80 84 1.0 4.0 0.00 0.00 0.00 60 1020.2
20260904201818 79 81 1.0 4.0 0.00 0.00 0.00 63 1020.1
20260904201315 77 79 1.0 2.0 0.00 0.00 0.00 67 1020.1
20260904200839 77 344 0.0 0.0 0.00 0.00 0.00 69 1020.0
20260904200320 77 344 0.0 0.0 0.00 0.00 0.00 69 1020.0
20260904195815 77 344 0.0 0.0 0.00 0.00 0.00 69 1019.9
20260904195318 77 344 0.0 2.0 0.00 0.00 0.00 70 1019.9
20260904194838 77 344 0.0 4.0 0.00 0.00 0.00 69 1019.9
20260904194339 77 344 2.0 4.0 0.00 0.00 0.00 69 1019.8
20260904193815 78 338 1.0 4.0 0.00 0.00 0.00 67 1019.8
20260904193332 80 256 1.0 3.0 0.00 0.00 0.00 66 1019.8
20260904192836 80 259 0.0 0.0 0.00 0.00 0.00 67 1019.7
20260904192313 80 259 0.0 0.0 0.00 0.00 0.00 67 1019.6
20260904191836 80 259 0.0 0.0 0.00 0.00 0.00 67 1019.6
20260904191332 80 259 0.0 0.0 0.00 0.00 0.00 67 1019.6
20260904190829 80 259 0.0 0.0 0.00 0.00 0.00 65 1019.6
20260904190354 81 259 0.0 0.0 0.00 0.00 0.00 64 1019.7
20260904185826 81 259 0.0 0.0 0.00 0.00 0.00 64 1019.7
20260904185320 81 259 0.0 0.0 0.00 0.00 0.00 64 1019.8
20260904184822 81 259 0.0 0.0 0.00 0.00 0.00 65 1019.7
20260904184335 82 258 0.0 2.0 0.00 0.00 0.00 64 1019.7
20260904183930 82 258 0.0 3.0 0.00 0.00 0.00 63 1019.8
20260904183847 82 258 0.0 3.0 0.00 0.00 0.00 63 1019.8
20260904183343 83 258 2.0 3.0 0.00 0.00 0.00 62 1019.8
20260904182828 84 128 1.0 2.0 0.00 0.00 0.00 61 1019.7
20260904182333 84 127 0.0 0.0 0.00 0.00 0.00 63 1019.7
20260904181842 83 127 0.0 1.0 0.00 0.00 0.00 63 1019.8
20260904181405 83 127 0.0 3.0 0.00 0.00 0.00 64 1019.6
20260904180828 83 127 2.0 3.0 0.00 0.00 0.00 64 1019.7
20260904180324 83 90 0.0 1.0 0.00 0.00 0.00 63 1019.8
20260904175822 83 90 0.0 1.0 0.00 0.00 0.00 62 1019.8
20260904175339 83 90 0.0 2.0 0.00 0.00 0.00 63 1019.8
20260904174832 83 88 1.0 3.0 0.00 0.00 0.00 64 1020.0
20260904174316 82 89 1.0 3.0 0.00 0.00 0.00 65 1020.4
20260904173828 81 87 0.0 2.0 0.00 0.00 0.00 67 1020.3
20260904173323 80 86 1.0 2.0 0.00 0.00 0.00 68 1020.4
20260904172831 79 86 0.0 3.0 0.00 0.00 0.00 70 1020.4
20260904172347 78 86 1.0 3.0 0.00 0.00 0.00 72 1020.5
20260904171814 77 71 1.0 3.0 0.00 0.00 0.00 73 1020.4